�N����,�ō��C����30���i�^�ē��j,�ō��C����35���i�ҏ����j
2014/05/01,,
2014/05/02,,
2014/05/03,,
2014/05/04,,
2014/05/05,,
2014/05/06,,
2014/05/07,,
2014/05/08,,
2014/05/09,,
2014/05/10,1,
2014/05/11,3,
2014/05/12,1,
2014/05/13,5,
2014/05/14,42,
2014/05/15,4,
2014/05/16,2,
2014/05/17,6,
2014/05/18,11,
2014/05/19,8,
2014/05/20,11,
2014/05/21,1,
2014/05/22,3,
2014/05/23,6,
2014/05/24,14,
2014/05/25,20,
2014/05/26,14,
2014/05/27,15,
2014/05/28,104,
2014/05/29,150,
2014/05/30,265,
2014/05/31,313,1
2014/06/01,401,27
2014/06/02,326,3
2014/06/03,255,18
2014/06/04,165,18
2014/06/05,56,
2014/06/06,9,
2014/06/07,5,
2014/06/08,31,
2014/06/09,43,
2014/06/10,34,
2014/06/11,14,
2014/06/12,26,
2014/06/13,35,
2014/06/14,20,
2014/06/15,59,
2014/06/16,79,
2014/06/17,36,
2014/06/18,23,
2014/06/19,42,
2014/06/20,55,
2014/06/21,38,
2014/06/22,34,
2014/06/23,38,
2014/06/24,53,
2014/06/25,62,
2014/06/26,104,
2014/06/27,122,
2014/06/28,68,
2014/06/29,130,
2014/06/30,45,
2014/07/01,167,
2014/07/02,160,
2014/07/03,59,
2014/07/04,62,1
2014/07/05,60,1
2014/07/06,74,1
2014/07/07,76,
2014/07/08,394,15
2014/07/09,222,12
2014/07/10,135,
2014/07/11,348,20
2014/07/12,431,4
2014/07/13,98,
2014/07/14,194,
2014/07/15,429,5
2014/07/16,389,21
2014/07/17,384,18
2014/07/18,320,
2014/07/19,276,
2014/07/20,267,
2014/07/21,344,
2014/07/22,532,
2014/07/23,524,17
2014/07/24,557,58
2014/07/25,679,185
2014/07/26,698,231
2014/07/27,438,56
2014/07/28,332,1
2014/07/29,544,14
2014/07/30,670,90
2014/07/31,610,97
2014/08/01,573,49
2014/08/02,462,59
2014/08/03,443,54
2014/08/04,558,29
2014/08/05,503,118
2014/08/06,548,74
2014/08/07,566,38
2014/08/08,202,
2014/08/09,64,
2014/08/10,143,
2014/08/11,283,2
2014/08/12,166,
2014/08/13,360,
2014/08/14,284,
2014/08/15,300,2
2014/08/16,163,
2014/08/17,289,2
2014/08/18,499,11
2014/08/19,539,35
2014/08/20,540,77
2014/08/21,565,30
2014/08/22,450,39
2014/08/23,432,
2014/08/24,283,
2014/08/25,272,
2014/08/26,268,3
2014/08/27,194,
2014/08/28,54,
2014/08/29,47,
2014/08/30,65,
2014/08/31,105,
2014/09/01,74,
2014/09/02,171,
2014/09/03,172,
2014/09/04,96,
2014/09/05,195,
2014/09/06,306,
2014/09/07,150,1
2014/09/08,162,
2014/09/09,225,
2014/09/10,124,1
2014/09/11,89,
2014/09/12,50,
2014/09/13,35,
2014/09/14,51,
2014/09/15,44,
2014/09/16,131,
2014/09/17,67,
2014/09/18,36,
2014/09/19,36,
2014/09/20,34,
2014/09/21,36,
2014/09/22,33,
2014/09/23,28,
2014/09/24,34,
2014/09/25,85,
2014/09/26,27,
2014/09/27,28,
2014/09/28,63,
2014/09/29,42,
2014/09/30,41,
2014/10/01,35,
2014/10/02,40,
2014/10/03,59,
2014/10/04,,
2014/10/05,2,
2014/10/06,4,
2014/10/07,,
2014/10/08,1,
2014/10/09,11,
2014/10/10,12,
2014/10/11,,
2014/10/12,,
2014/10/13,2,
2014/10/14,2,
2014/10/15,,
2014/10/16,,
2014/10/17,,
2014/10/18,,
2014/10/19,4,
2014/10/20,8,
2014/10/21,10,
2014/10/22,,
2014/10/23,,
2014/10/24,,
2014/10/25,,
2014/10/26,2,
2014/10/27,,
2014/10/28,,
2014/10/29,,
2014/10/30,,
2014/10/31,3,
